Location: *
(35.8942°N, 23.3025°E)
Time: 16:30:11
(UTC+00:00)

Hubble Space Telescope - Visible Passes

Search period start: 02 December 2021 00:00
Search period end: 12 December 2021 00:00
Orbit: 534 x 538 km, 28.5° (Epoch: 02 December)

Date Brightness Start Highest point End Pass type
(mag) Time Alt. Az. Time Alt. Az. Time Alt. Az.
02 Dec 2.7 03:53:44 16° SW 03:55:26 20° SSW 03:58:27 10° SSE visible
03 Dec 2.7 03:43:15 16° SSW 03:44:11 17° SSW 03:46:57 10° SSE visible
04 Dec 2.9 03:32:48 15° SSW 03:32:56 15° SSW 03:35:19 10° SSE visible
05 Dec 3.2 03:22:21 12° S 03:22:21 12° S 03:23:29 10° S visible
